Location: *
(47.6569°N, 7.4256°E)
Time: 18:50:00
(UTC+00:00)

Envisat - Pass Details

Date: 14 December 2019
Orbit: 764 x 766 km, 98.1° (Epoch: 19 January)

Event Time Altitude Azimuth Distance (km) Brightness Sun altitude
Rises 16:48:04 0° 149° (SSE) 3,222 6.1 -11.1°
Reaches altitude 10° 16:50:24 10° 145° (SE) 2,300 5.3 -11.5°
Maximum altitude 16:55:18 52° 70° (ENE) 951 3.1 -12.2°
Drops below altitude 10° 17:00:15 10° 355° (N) 2,316 5.3 -13.0°
Sets 17:02:36 0° 351° (N) 3,246 6.1 -13.4°
